NOAA 17 DEB, 48616

Orbit data source: Space-Track

NOAA 17 DEB, 48616 is space debris in SSO originally from a launch on Mon, 24 Jun 2002 UTC launched from the Air Force Western Test Range (AFWTR). Debris objects in space refer to the collection of defunct objects orbiting the Earth. Examples of debris include non-operational satellites, rocket bodies, and fragments generated from explosions, collisions, or faulty payload assembly.

Loading next visibility...
Identifier
48616, 2002-032AH
Orbit
SSO
Country
Flag of USUS
Related business
Manufacturer
Unknown
Mission
Spacecraft
Bus & Motor
Unknown
Mass
Unknown
Launch date (UTC)
2002-06-24 (23 years ago)
Launch vehicle
Unknown
Launch site
Air Force Western Test Range (AFWTR)
Object type
Payload
Rocket body
Debris
Shape & HBR
Unknown shape, 0.1 m
Radar Cross Section
Small (<0.1 m²)

Expand to show TLE details & history
Last TLE update: 1 day ago

TLE from 1 day ago
0 NOAA 17 DEB
1 48616U 02032AH  25349.37447257  .00006863  00000-0  16004-2 0  9990
2 48616  98.7099 322.0624 0008680  57.7554 302.4482 14.55077573243931
Epoch: 2025-12-15T08:59Z
TLE epoch observation values (Epoch: 2025-12-15T08:59:14.430Z)
Latitude
0.00001°
Longitude
102.97832°
Altitude
708.778 km
Speed
7.503 km/s
True Right ascension
21h 28m 14s
True Declination
0° 00' 00"
Sunlit
Object was in daylight at epoch
Visualization orbit readout
Latitude
Unknown
Longitude
Unknown
Altitude
Unknown
Speed
Unknown
Apparent Right ascension
Unknown
Apparent Declination
Unknown
Sunlit
N/A
Visualization observer readout
Local Sidereal Time
08:23:13
Azimuth
Unknown
Elevation
Unknown
Doppler factor
Unknown
Orbital elements
Apogee altitude
712.374 km
Perigee altitude
700.076 km
Semi-major axis
7,084.362 km
Eccentricity
0.00087
Inclination
98.7099°
RAAN
322.0624°
Arg. of periapsis
57.7554°
True anomaly
302.36421°
Mean anomaly
302.4482°
Eccentric anomaly
302.40621°
Mean motion
3.63992 °/min
Orbital period
98.9 mins
BSTAR
0.0016004
Loading maneuver chart data...
Computing Atmospheric mass density...
Loading historical data...
Loading historical data...
Loading historical data...
Loading historical data...
Loading historical data...
Loading historical data...
Loading historical data...

Documentation

Showing up to 5 results
|